Moncure, NC

1:36 PM EST on February 12, 2016 (GMT -0500)
Raleigh Executive Jetport

Weather History for KTTA - July, 2013

Change the Weather History Date:

Saturday, July 13, 2013

  Actual Average (KRDU) Record (KRDU)
Temperature  
Mean Temperature 74 °F 80 °F  
Max Temperature 78 °F 90 °F 98 °F (1951)
Min Temperature 70 °F 70 °F 54 °F (1963)
Degree Days  
Heating Degree Days 0 0  
Month to date heating degree days 0  
Since 1 June heating degree days 4  
Since 1 July heating degree days 0  
Cooling Degree Days 9 15  
Month to date cooling degree days 195  
Year to date cooling degree days 751  
Since 1 June cooling degree days 542  
Growing Degree Days 24 (Base 50)    
Moisture  
Dew Point 71 °F    
Average Humidity 91    
Maximum Humidity 95    
Minimum Humidity 83    
Precipitation  
Precipitation 0.16 in 0.16 in 3.41 in (1941)
Month to date precipitation 1.83  
Year to date precipitation 22.38  
Sea Level Pressure  
Sea Level Pressure 30.09 in    
Wind  
Wind Speed 3 mph (NE)    
Max Wind Speed 7 mph    
Max Gust Speed -    
Visibility 8 miles    
Events Rain    
T = Trace of Precipitation, MM = Missing Value Source: NWS Daily Summary

Daily Weather History Graph

Daily Weather History Graph

Search for Another Location

Airport or City:

Trip Planner

Search our weather history database for the weather conditions in past years. The results will help you decide how hot, cold, wet, or windy it might be!

Date:

Astronomy

Jul. 13, 2013 Rise Set
Actual Time 6:11 AM EDT 8:32 PM EDT
Civil Twilight 5:41 AM EDT 9:02 PM EDT
Nautical Twilight 5:05 AM EDT 9:38 PM EDT
Astronomical Twilight 4:26 AM EDT 10:17 PM EDT
Moon 11:12 AM EDT (7/13) 11:26 PM EDT (7/13)
Length of Visible Light 15h 20m
Length of Day
14h 21m
Waxing Crescent, 25% of the Moon is Illuminated
Jul 13
Waxing Crescent
Jul 15
First Quarter
Jul 22
Full
Jul 29
Last Quarter
Aug 6
New

Hourly Weather History & Observations

Time (EDT) Temp. Dew Point Humidity Pressure Visibility Wind Dir Wind Speed Gust Speed Precip Events Conditions
12:15 AM 71.1 °F 68.5 °F 92% 30.03 in 10.0 mi NNE 5.8 mph - N/A   Mostly Cloudy
12:35 AM 70.7 °F 68.5 °F 93% 30.03 in 10.0 mi NNE 5.8 mph - N/A   Scattered Clouds
12:55 AM 70.7 °F 68.4 °F 92% 30.03 in 10.0 mi NNE 4.6 mph - N/A   Clear
1:15 AM 70.2 °F 68.4 °F 94% 30.03 in 7.0 mi NNE 4.6 mph - N/A   Clear
1:35 AM 70.0 °F 68.4 °F 95% 30.02 in 7.0 mi NNE 3.5 mph - N/A   Mostly Cloudy
1:55 AM 70.2 °F 68.5 °F 95% 30.02 in 7.0 mi NE 3.5 mph - N/A   Scattered Clouds
2:15 AM 70.2 °F 68.4 °F 94% 30.03 in 7.0 mi Calm Calm - N/A   Clear
2:35 AM 70.2 °F 68.5 °F 95% 30.03 in 7.0 mi Calm Calm - N/A   Mostly Cloudy
2:55 AM 70.7 °F 68.9 °F 94% 30.03 in 7.0 mi Calm Calm - N/A   Overcast
3:15 AM 70.2 °F 68.5 °F 95% 30.04 in 7.0 mi Calm Calm - N/A   Mostly Cloudy
3:35 AM 70.7 °F 69.1 °F 95% 30.04 in 7.0 mi Calm Calm - N/A   Overcast
3:55 AM 70.7 °F 68.9 °F 94% 30.04 in 7.0 mi Calm Calm - N/A   Overcast
4:15 AM 70.7 °F 68.9 °F 94% 30.04 in 7.0 mi Calm Calm - N/A   Overcast
4:35 AM 70.7 °F 69.1 °F 95% 30.04 in 7.0 mi Calm Calm - N/A   Overcast
4:55 AM 71.1 °F 69.4 °F 95% 30.04 in 7.0 mi Calm Calm - N/A   Overcast
5:15 AM 71.1 °F 69.4 °F 95% 30.04 in 7.0 mi Calm Calm - N/A   Overcast
5:35 AM 70.9 °F 69.3 °F 95% 30.04 in 7.0 mi NNE 4.6 mph - N/A   Overcast
5:55 AM 70.9 °F 69.3 °F 95% 30.04 in 7.0 mi NNE 4.6 mph - N/A   Overcast
6:15 AM 71.1 °F 69.4 °F 95% 30.04 in 7.0 mi NNE 3.5 mph - N/A   Overcast
6:35 AM 71.1 °F 69.4 °F 95% 30.06 in 7.0 mi Calm Calm - N/A   Overcast
6:55 AM 71.2 °F 69.8 °F 95% 30.05 in 5.0 mi North 4.6 mph - N/A   Overcast
7:15 AM 71.4 °F 69.8 °F 95% 30.06 in 5.0 mi NNE 4.6 mph - N/A   Overcast
7:35 AM 71.6 °F 69.8 °F 94% 30.06 in 7.0 mi NNE 3.5 mph - N/A   Overcast
7:55 AM 71.8 °F 70.0 °F 94% 30.08 in 7.0 mi Calm Calm - N/A   Overcast
8:15 AM 71.8 °F 69.8 °F 93% 30.09 in 7.0 mi NNE 3.5 mph - N/A   Overcast
8:35 AM 72.0 °F 69.8 °F 93% 30.09 in 7.0 mi NNE 4.6 mph - N/A   Overcast
8:55 AM 72.1 °F 70.0 °F 93% 30.09 in 7.0 mi NNE 3.5 mph - N/A   Overcast
9:15 AM 72.5 °F 70.2 °F 92% 30.10 in 10.0 mi NNE 4.6 mph - N/A   Overcast
9:35 AM 72.9 °F 70.2 °F 91% 30.11 in 10.0 mi NNE 4.6 mph - N/A   Overcast
9:55 AM 73.6 °F 70.7 °F 91% 30.11 in 10.0 mi NE 4.6 mph - N/A   Overcast
10:15 AM 74.1 °F 70.7 °F 89% 30.11 in 10.0 mi NNE 3.5 mph - N/A   Overcast
10:35 AM 75.0 °F 70.9 °F 87% 30.11 in 10.0 mi ENE 3.5 mph - N/A   Overcast
10:55 AM 75.2 °F 71.4 °F 88% 30.11 in 10.0 mi NNE 4.6 mph - N/A Rain Light Rain
11:15 AM 75.2 °F 71.2 °F 87% 30.11 in 10.0 mi ENE 4.6 mph - N/A Rain Light Rain
11:35 AM 75.7 °F 71.8 °F 87% 30.12 in 10.0 mi Calm Calm - N/A Rain Light Rain
11:55 AM 76.1 °F 72.1 °F 87% 30.12 in 10.0 mi NE 4.6 mph - N/A   Overcast
12:15 PM 75.9 °F 72.0 °F 87% 30.11 in 10.0 mi NE 3.5 mph - N/A Rain Light Rain
12:35 PM 75.2 °F 72.1 °F 90% 30.12 in 7.0 mi Calm Calm - 0.01 in Rain Rain
12:55 PM 74.5 °F 72.3 °F 93% 30.12 in 5.0 mi NNE 3.5 mph - 0.04 in Rain Rain
1:15 PM 74.3 °F 72.5 °F 94% 30.12 in 3.0 mi Calm Calm - 0.04 in Rain Rain
1:35 PM 75.7 °F 74.1 °F 95% 30.12 in 7.0 mi NE 3.5 mph - 0.04 in Rain Light Rain
1:55 PM 78.1 °F 74.7 °F 89% 30.11 in 10.0 mi NNE 5.8 mph - 0.04 in   Overcast
2:15 PM 77.5 °F 73.4 °F 87% 30.12 in 10.0 mi NE 4.6 mph - N/A   Overcast
2:35 PM 76.8 °F 73.4 °F 89% 30.11 in 10.0 mi Calm Calm - 0.01 in Rain Rain
2:55 PM 76.3 °F 73.8 °F 92% 30.11 in 7.0 mi Calm Calm - 0.03 in Rain Rain
3:15 PM 75.7 °F 73.6 °F 93% 30.11 in 4.0 mi Calm Calm - 0.04 in Rain Rain
3:35 PM 75.9 °F 73.9 °F 94% 30.11 in 10.0 mi Calm Calm - 0.05 in Rain Light Rain
3:55 PM 77.0 °F 74.7 °F 92% 30.11 in 10.0 mi Calm Calm - 0.05 in   Scattered Clouds
4:15 PM 77.9 °F 73.2 °F 85% 30.12 in 10.0 mi East 6.9 mph - N/A   Scattered Clouds
4:35 PM 77.9 °F 72.9 °F 84% 30.11 in 10.0 mi East 5.8 mph - N/A   Unknown
4:55 PM 77.7 °F 72.3 °F 83% 30.10 in 10.0 mi ENE 5.8 mph - N/A   Mostly Cloudy
5:15 PM 76.6 °F 72.0 °F 85% 30.11 in 10.0 mi East 3.5 mph - N/A Rain Light Rain
5:35 PM 76.3 °F 72.5 °F 88% 30.11 in 10.0 mi Calm Calm - N/A Rain Light Rain
5:55 PM 77.2 °F 73.4 °F 88% 30.10 in 10.0 mi NE 5.8 mph - N/A   Mostly Cloudy
6:15 PM 77.0 °F 72.7 °F 86% 30.10 in 10.0 mi ENE 3.5 mph - N/A   Mostly Cloudy
6:35 PM 76.1 °F 73.0 °F 90% 30.10 in 10.0 mi Calm Calm - N/A Rain Light Rain
6:55 PM 76.1 °F 73.4 °F 91% 30.11 in 10.0 mi Calm Calm - N/A   Mostly Cloudy
7:15 PM 76.3 °F 73.6 °F 91% 30.10 in 10.0 mi Calm Calm - N/A   Scattered Clouds
7:35 PM 76.3 °F 73.4 °F 91% 30.11 in 10.0 mi Calm Calm - N/A   Scattered Clouds
7:55 PM 76.1 °F 73.4 °F 91% 30.11 in 10.0 mi NE 3.5 mph - N/A   Mostly Cloudy
8:15 PM 76.1 °F 73.4 °F 91% 30.12 in 10.0 mi NE 4.6 mph - N/A   Scattered Clouds
8:35 PM 75.7 °F 72.9 °F 91% 30.12 in 10.0 mi East 4.6 mph - N/A   Scattered Clouds
8:55 PM 76.1 °F 72.7 °F 89% 30.12 in 10.0 mi East 6.9 mph - N/A   Mostly Cloudy
9:15 PM 75.7 °F 72.1 °F 89% 30.13 in 10.0 mi East 5.8 mph - N/A   Overcast
9:35 PM 75.6 °F 72.1 °F 89% 30.14 in 10.0 mi East 5.8 mph - N/A   Overcast
9:55 PM 75.2 °F 71.6 °F 89% 30.14 in 10.0 mi East 5.8 mph - N/A   Overcast
10:15 PM 75.2 °F 71.6 °F 89% 30.15 in 10.0 mi ESE 5.8 mph - N/A   Overcast
10:35 PM 74.8 °F 71.4 °F 89% 30.16 in 7.0 mi East 3.5 mph - N/A   Overcast
10:55 PM 74.7 °F 71.2 °F 89% 30.16 in 10.0 mi ESE 4.6 mph - N/A   Mostly Cloudy
11:15 PM 74.3 °F 71.1 °F 90% 30.17 in 10.0 mi ESE 3.5 mph - N/A   Scattered Clouds
11:35 PM 74.3 °F 71.2 °F 90% 30.17 in 10.0 mi Calm Calm - N/A   Overcast
11:55 PM 73.9 °F 71.1 °F 91% 30.17 in 10.0 mi East 3.5 mph - N/A   Overcast